Location: Laterina
(43.5167°N, 11.7167°E)
Time: 23:09:22
(UTC+00:00)

Cosmos 1125 Rocket - Pass Details

Date: 18 June 2021
Orbit: 757 x 780 km, 74.0° (Epoch: 29 July)

Event Time Altitude Azimuth Distance (km) Brightness Sun altitude
Rises 00:37:16 0° 352° (N) 3,241 7.8 -20.4°
Reaches altitude 10° 00:40:29 10° 12° (NNE) 2,315 7.2 -20.2°
Maximum altitude 00:43:54 17° 53° (NE) 1,869 6.2 -20.0°
Drops below altitude 10° 00:47:17 10° 94° (E) 2,317 6.2 -19.7°
Sets 00:50:30 0° 114° (ESE) 3,244 6.8 -19.5°
